Weather Roundup
Issued by NWS

Home | Current Version | Previous Version | Text Only | Print | Product List | Glossary On
Versions: 1 2 3 4 5 6 7 8 9 10 11 12 13 14 15 16 17 18 19 20 21 22 23 24 25 26 27 28 29 30 31 32 33 34 35 36 37 38 39 40 41 42 43 44 45 46 47 48 49 50
520
NZUS93 KARX 270210
HRRWXR

CURRENT HOURLY OBSERVATIONS ACROSS
MUCH OF THE UPPER MISSISSIPPI VALLEY
NATIONAL WEATHER SERVICE LA CROSSE WI
900 PM CDT MON SEP 26 2016


...SOUTHEAST MINNESOTA...


CITY           SKY/WX    TMP DP  RH WIND       PRES   REMARKS
ROCHESTER      CLEAR     53  37  54 W8        29.92R
ROCHESTER/MAYO FAIR      58  33  39 W12       29.90S
WINONA         CLEAR     61  34  36 W8        29.87F
AUSTIN         CLEAR     57  34  41 W9        29.93S
ALBERT LEA     CLEAR     55  36  47 W3        29.95S
DODGE CENTER   CLEAR     52  36  54 W7        29.92S
PRESTON        CLEAR     54  35  48 W9        29.92S
OWATONNA       CLEAR     55  34  44 W9        29.92S
FARIBAULT      CLEAR     55  39  54 W6        29.92S
$$

...ELSEWHERE IN MINNESOTA...


CITY           SKY/WX    TMP DP  RH WIND       PRES   REMARKS
MINNEAPOLIS    CLEAR     58  36  43 W10       29.88S
INTNL FALLS    LGT RAIN  50  47  89 NW18G26   29.71S
DULUTH         LGT RAIN  51  45  79 W20G28    29.72F
RED WING       CLEAR     55  37  50 NW3       29.86S
REDWOOD FALLS  CLEAR     56  35  45 W10       29.96R
MANKATO        CLEAR     57  34  41 W10       29.94R
WORTHINGTON    CLEAR     50  35  56 W9        30.03R
FAIRMONT       CLEAR     56  36  47 W9        29.98S
$$

...SOUTHWEST WISCONSIN...


CITY           SKY/WX    TMP DP  RH WIND       PRES   REMARKS
LA CROSSE      CLEAR     62  36  37 W12       29.87S
PRAIRIE DU CHI CLEAR     59  33  38 W6        29.92S
BOSCOBEL       CLEAR     55  38  52 SW6       29.92R
LONE ROCK      CLEAR     55  40  56 W5        29.90S
PLATTEVILLE    CLEAR     56  38  51 W9        29.94S
FORT MC COY    CLEAR     44  42  93 CALM      29.87S
CAMP DOUGLAS   CLEAR     52  40  64 SW8       29.85S
MAUSTON-NEW LI CLEAR     56  40  54 SW6       29.85F
VIROQUA        FAIR      54  34  48 W8        29.89F
WIS DELLS      CLEAR     48  40  74 SW3       29.87F
$$

...ELSEWHERE IN WISCONSIN...


CITY           SKY/WX    TMP DP  RH WIND       PRES   REMARKS
MILWAUKEE      CLEAR     60  38  43 W6        29.88S
MADISON        CLEAR     55  39  54 VRB3      29.88S
GREEN BAY      CLOUDY    56  42  59 SW8       29.79F
EAU CLAIRE     PTCLDY    54  38  54 W9        29.83S
BLACK RVR FLS  FAIR      42  42 100 CALM      29.85S
MEDFORD        CLOUDY    52  40  63 W7        29.78F
WAUSAU         CLOUDY    54  40  59 W13       29.77F
WIS RAPIDS     PTCLDY    52  42  69 W7        29.83F
MARSHFIELD     PTCLDY    53  40  61 W9        29.81S
RICE LAKE      MOCLDY    56  38  52 W9G16     29.83S
$$

...NORTHEAST IOWA...


CITY           SKY/WX    TMP DP  RH WIND       PRES   REMARKS
WATERLOO       CLEAR     55  40  56 W7        29.96S
DUBUQUE        CLEAR     51  41  68 W7        29.96S
DECORAH        CLEAR     55  36  47 VRB6      29.92S
MASON CITY     CLEAR     51  36  56 W9        29.98S
CHARLES CITY   CLEAR     52  37  58 W7        29.96S
OELWEIN        CLEAR     52  39  62 W8        29.97S
$$

...ELSEWHERE IN IOWA...


CITY           SKY/WX    TMP DP  RH WIND       PRES   REMARKS
DES MOINES     CLEAR     61  44  53 W7        30.03R
IOWA CITY      CLEAR     57  43  59 W6        30.00S
FORT DODGE     CLEAR     55  37  50 W8        30.01F
MARSHALLTOWN   CLEAR     55  41  59 W8        29.99S
CEDAR RAPIDS   CLEAR     55  42  61 SW7       29.98S
$$

...NORTHERN ILLINOIS...


CITY           SKY/WX    TMP DP  RH WIND       PRES   REMARKS
CHICAGO-OHARE  CLEAR     60  34  37 SW7       29.94R
CHICAGO-MIDWAY CLEAR     63  33  32 SW8       29.95R
MOLINE         CLEAR     57  40  52 SW6       29.98S
ROCKFORD       CLEAR     59  37  44 W8        29.96S
PEORIA         CLEAR     59  41  51 SW5       30.02S
$$

NOTE: "FAIR" INDICATES FEW OR NO CLOUDS BELOW 12,000 FEET WITH NO
SIGNIFICANT WEATHER AND/OR OBSTRUCTIONS TO VISIBILITY. WIND
SPEEDS ARE IN MILES-PER-HOUR.




USA.gov is the U.S. government's official web portal to all federal, state and local government web resources and services.